Location: Newark
(48.9358°N, 1.4000°E)
Time: 11:59:01
(UTC+00:00)

OTV 5 (USA 277) - Visible Passes

Search period start: 15 October 2019 00:00
Search period end: 25 October 2019 00:00
Orbit: 310 x 324 km, 54.5° (Epoch: 08 October)

Date Brightness Start Highest point End Pass type
(mag) Time Alt. Az. Time Alt. Az. Time Alt. Az.
15 Oct ? 03:53:05 19° NE 03:53:05 19° NE 03:54:19 10° ENE visible
15 Oct ? 05:23:59 11° WNW 05:26:36 67° NNE 05:29:19 10° ESE visible
16 Oct ? 04:07:19 28° NE 04:07:19 28° NE 04:09:12 10° E visible
16 Oct ? 05:38:26 10° WNW 05:41:09 56° SW 05:43:50 10° SE visible
17 Oct ? 04:21:38 46° NE 04:21:38 46° NE 04:24:04 10° E visible
18 Oct ? 04:36:01 85° S 04:36:01 85° S 04:38:44 10° ESE visible
19 Oct ? 04:50:31 37° SW 04:50:31 37° SW 04:53:03 10° SSE visible
20 Oct ? 05:05:08 17° SW 05:05:08 17° SW 05:06:44 10° S visible
